Location: Çayiçi
(36.4667°N, 30.2333°E)
Time: 02:02:29
(UTC+00:00)

Cosmos 2278 Rocket - Pass Details

Date: 09 February 2023
Orbit: 841 x 845 km, 71.0° (Epoch: 01 April)

Event Time Altitude Azimuth Distance (km) Brightness Sun altitude
Rises 18:33:14 0° 326° (NW) 3,407 5.9 -36.6°
Reaches altitude 10° 18:35:58 10° 315° (NW) 2,467 5.1 -37.1°
Enters shadow 18:40:33 28° 261° (W) 1,519 3.9 -38.0°
